GLD1043 SDAG-SBJR

Flight info

Callsign GLD1043
Flight time 0h 38m
Altitude 2300
Route DCT 2307S04423W REA 2301S04403W REH
Aircraft AS50/L-SDFG/S

Departure

Time 2026-04-14 00:46
Airport Angra dos Reis Airport (SDAG)

Arrival

Time 2026-04-14 01:25
Airport Jacarepaguá - Roberto Marinho Airport (SBJR)
Time Latitude Longitude Altitude Speed Heading
2026-04-14 00:35 -22.97531 -44.30388 0 ft 0 kts 77°
2026-04-14 00:45 -22.97530 -44.30382 -3 ft 3 kts 73°
2026-04-14 00:45 -22.97513 -44.30346 5 ft 7 kts 49°
2026-04-14 00:45 -22.97495 -44.30324 5 ft 2 kts
2026-04-14 00:45 -22.97463 -44.30342 12 ft 9 kts 287°
2026-04-14 00:46 -22.97475 -44.30557 119 ft 51 kts 255°
2026-04-14 00:46 -22.97574 -44.31006 284 ft 67 kts 259°
2026-04-14 00:46 -22.97659 -44.31469 576 ft 62 kts 259°
2026-04-14 00:46 -22.97767 -44.31927 804 ft 65 kts 253°
2026-04-14 00:47 -22.97900 -44.32428 980 ft 73 kts 253°
2026-04-14 00:47 -22.98043 -44.32978 1128 ft 79 kts 253°
2026-04-14 00:47 -22.98195 -44.33572 1271 ft 84 kts 254°
2026-04-14 00:47 -22.98361 -44.34202 1384 ft 89 kts 255°
2026-04-14 00:48 -22.98510 -44.34857 1517 ft 89 kts 255°
2026-04-14 00:48 -22.98667 -44.35507 1665 ft 89 kts 254°
2026-04-14 00:48 -22.98829 -44.36166 1771 ft 91 kts 257°
2026-04-14 00:48 -22.98987 -44.36816 1934 ft 89 kts 257°
2026-04-14 00:49 -22.99157 -44.37472 2055 ft 93 kts 250°
2026-04-14 00:49 -22.99645 -44.37938 2150 ft 98 kts 200°
2026-04-14 00:49 -23.00316 -44.38015 2267 ft 97 kts 178°
2026-04-14 00:49 -23.01018 -44.37965 2269 ft 105 kts 174°
2026-04-14 00:50 -23.01763 -44.37890 2273 ft 110 kts 174°
2026-04-14 00:50 -23.02539 -44.37819 2264 ft 112 kts 175°
2026-04-14 00:50 -23.03323 -44.37760 2261 ft 114 kts 176°
2026-04-14 00:50 -23.04123 -44.37711 2264 ft 117 kts 177°
2026-04-14 00:51 -23.04938 -44.37670 2255 ft 117 kts 177°
2026-04-14 00:51 -23.05748 -44.37635 2258 ft 116 kts 177°
2026-04-14 00:51 -23.06557 -44.37605 2255 ft 117 kts 178°
2026-04-14 00:51 -23.07366 -44.37577 2255 ft 116 kts 178°
2026-04-14 00:52 -23.08173 -44.37550 2262 ft 116 kts 178°
2026-04-14 00:52 -23.08986 -44.37524 2259 ft 117 kts 178°
2026-04-14 00:52 -23.09799 -44.37498 2258 ft 117 kts 177°
2026-04-14 00:52 -23.10580 -44.37327 2253 ft 116 kts 150°
2026-04-14 00:53 -23.11100 -44.36680 2258 ft 113 kts 110°
2026-04-14 00:53 -23.11147 -44.35864 2268 ft 110 kts 79°
2026-04-14 00:53 -23.10950 -44.35066 2260 ft 109 kts 69°
2026-04-14 00:53 -23.10692 -44.34289 2255 ft 109 kts 67°
2026-04-14 00:54 -23.10427 -44.33516 2265 ft 109 kts 68°
2026-04-14 00:54 -23.10170 -44.32736 2256 ft 110 kts 69°
2026-04-14 00:54 -23.09923 -44.31952 2262 ft 110 kts 69°
2026-04-14 00:54 -23.09674 -44.31153 2259 ft 114 kts 69°
2026-04-14 00:55 -23.09422 -44.30326 2255 ft 117 kts 70°
2026-04-14 00:55 -23.09170 -44.29479 2256 ft 118 kts 70°
2026-04-14 00:55 -23.08921 -44.28623 2255 ft 119 kts 71°
2026-04-14 00:55 -23.08674 -44.27765 2254 ft 119 kts 70°
2026-04-14 00:56 -23.08432 -44.26917 2254 ft 119 kts 71°
2026-04-14 00:56 -23.08187 -44.26059 2252 ft 119 kts 71°
2026-04-14 00:56 -23.07942 -44.25199 2253 ft 119 kts 70°
2026-04-14 00:56 -23.07699 -44.24345 2256 ft 118 kts 71°
2026-04-14 00:57 -23.07454 -44.23490 2268 ft 119 kts 71°
2026-04-14 00:57 -23.07291 -44.22919 2262 ft 120 kts 71°
2026-04-14 00:57 -23.07040 -44.22043 2259 ft 119 kts 69°
2026-04-14 00:57 -23.06798 -44.21203 2263 ft 117 kts 69°
2026-04-14 00:58 -23.06556 -44.20363 2257 ft 116 kts 69°
2026-04-14 00:58 -23.06316 -44.19535 2258 ft 114 kts 70°
2026-04-14 00:58 -23.06076 -44.18702 2264 ft 117 kts 70°
2026-04-14 00:58 -23.05830 -44.17857 2263 ft 118 kts 70°
2026-04-14 00:59 -23.05584 -44.17008 2261 ft 118 kts 69°
2026-04-14 00:59 -23.05337 -44.16160 2256 ft 118 kts 70°
2026-04-14 00:59 -23.05093 -44.15316 2259 ft 117 kts 70°
2026-04-14 00:59 -23.04848 -44.14474 2259 ft 117 kts 71°
2026-04-14 01:00 -23.04602 -44.13626 2259 ft 118 kts 70°
2026-04-14 01:00 -23.04353 -44.12771 2262 ft 120 kts 70°
2026-04-14 01:00 -23.04101 -44.11906 2263 ft 120 kts 70°
2026-04-14 01:00 -23.03849 -44.11045 2262 ft 119 kts 70°
2026-04-14 01:01 -23.03598 -44.10184 2264 ft 119 kts 70°
2026-04-14 01:01 -23.03350 -44.09336 2264 ft 120 kts 71°
2026-04-14 01:01 -23.03100 -44.08479 2261 ft 119 kts 70°
2026-04-14 01:01 -23.02852 -44.07628 2264 ft 117 kts 70°
2026-04-14 01:02 -23.02605 -44.06783 2267 ft 118 kts 70°
2026-04-14 01:02 -23.02356 -44.05929 2262 ft 119 kts 70°
2026-04-14 01:02 -23.02174 -44.05050 2259 ft 120 kts 81°
2026-04-14 01:02 -23.02114 -44.04151 2240 ft 121 kts 85°
2026-04-14 01:03 -23.02084 -44.03213 2135 ft 127 kts 86°
2026-04-14 01:03 -23.02057 -44.02232 2019 ft 133 kts 84°
2026-04-14 01:03 -23.02021 -44.01216 1873 ft 137 kts 84°
2026-04-14 01:03 -23.01976 -44.00191 1749 ft 136 kts 84°
2026-04-14 01:04 -23.01923 -43.99166 1600 ft 136 kts 84°
2026-04-14 01:04 -23.01869 -43.98163 1527 ft 130 kts 84°
2026-04-14 01:04 -23.01813 -43.97185 1468 ft 126 kts 83°
2026-04-14 01:04 -23.01763 -43.96278 1523 ft 117 kts 83°
2026-04-14 01:05 -23.01711 -43.95394 1519 ft 118 kts 83°
2026-04-14 01:05 -23.01659 -43.94497 1519 ft 120 kts 84°
2026-04-14 01:05 -23.01605 -43.93588 1517 ft 121 kts 83°
2026-04-14 01:05 -23.01552 -43.92675 1514 ft 121 kts 83°
2026-04-14 01:06 -23.01499 -43.91762 1513 ft 122 kts 83°
2026-04-14 01:06 -23.01446 -43.90840 1514 ft 122 kts 83°
2026-04-14 01:06 -23.01395 -43.89927 1511 ft 122 kts 83°
2026-04-14 01:06 -23.01344 -43.89012 1510 ft 121 kts 83°
2026-04-14 01:07 -23.01294 -43.88108 1510 ft 119 kts 83°
2026-04-14 01:07 -23.01245 -43.87221 1517 ft 116 kts 82°
2026-04-14 01:07 -23.01196 -43.86353 1533 ft 115 kts 83°
2026-04-14 01:07 -23.01147 -43.85496 1540 ft 114 kts 83°
2026-04-14 01:08 -23.01098 -43.84632 1539 ft 115 kts 83°
2026-04-14 01:08 -23.01046 -43.83748 1542 ft 117 kts 83°
2026-04-14 01:08 -23.00996 -43.82875 1541 ft 117 kts 83°
2026-04-14 01:08 -23.00945 -43.81987 1544 ft 120 kts 82°
2026-04-14 01:09 -23.00893 -43.81081 1539 ft 120 kts 82°
2026-04-14 01:09 -23.00841 -43.80184 1539 ft 119 kts 82°
2026-04-14 01:09 -23.00790 -43.79284 1541 ft 120 kts 82°
2026-04-14 01:09 -23.00737 -43.78374 1540 ft 121 kts 84°
2026-04-14 01:10 -23.00687 -43.77477 1539 ft 117 kts 82°
2026-04-14 01:10 -23.00637 -43.76597 1543 ft 117 kts 83°
2026-04-14 01:10 -23.00587 -43.75715 1538 ft 115 kts 82°
2026-04-14 01:10 -23.00538 -43.74860 1545 ft 114 kts 82°
2026-04-14 01:11 -23.00488 -43.74001 1541 ft 114 kts 83°
2026-04-14 01:11 -23.00438 -43.73139 1543 ft 115 kts 83°
2026-04-14 01:11 -23.00389 -43.72284 1539 ft 114 kts 83°
2026-04-14 01:11 -23.00339 -43.71433 1544 ft 113 kts 84°
2026-04-14 01:12 -23.00290 -43.70573 1542 ft 115 kts 83°
2026-04-14 01:12 -23.00240 -43.69719 1540 ft 112 kts 84°
2026-04-14 01:12 -23.00192 -43.68878 1544 ft 113 kts 83°
2026-04-14 01:12 -23.00142 -43.68031 1542 ft 112 kts 84°
2026-04-14 01:13 -23.00093 -43.67177 1544 ft 114 kts 83°
2026-04-14 01:13 -23.00043 -43.66318 1530 ft 116 kts 82°
2026-04-14 01:13 -22.99987 -43.65411 1427 ft 124 kts 83°
2026-04-14 01:13 -22.99930 -43.64460 1359 ft 129 kts 84°
2026-04-14 01:14 -22.99876 -43.63503 1339 ft 126 kts 84°
2026-04-14 01:14 -22.99822 -43.62540 1345 ft 129 kts 85°
2026-04-14 01:14 -22.99765 -43.61560 1338 ft 130 kts 84°
2026-04-14 01:14 -22.99921 -43.60607 1343 ft 130 kts 112°
2026-04-14 01:15 -23.00454 -43.59826 1343 ft 130 kts 132°
2026-04-14 01:15 -23.01134 -43.59176 1351 ft 132 kts 139°
2026-04-14 01:15 -23.01865 -43.58544 1345 ft 135 kts 140°
2026-04-14 01:15 -23.02578 -43.57905 1336 ft 130 kts 137°
2026-04-14 01:16 -23.03243 -43.57268 1342 ft 125 kts 135°
2026-04-14 01:16 -23.03873 -43.56630 1347 ft 123 kts 133°
2026-04-14 01:16 -23.04484 -43.55994 1347 ft 121 kts 129°
2026-04-14 01:16 -23.04851 -43.55213 1350 ft 116 kts 101°
2026-04-14 01:18 -23.04924 -43.49205 1342 ft 119 kts 81°
2026-04-14 01:18 -23.04827 -43.48299 1342 ft 119 kts 82°
2026-04-14 01:19 -23.04741 -43.47409 1342 ft 121 kts 82°
2026-04-14 01:19 -23.04661 -43.46486 1310 ft 125 kts 83°
2026-04-14 01:19 -23.04486 -43.45542 1224 ft 129 kts 71°
2026-04-14 01:19 -23.04173 -43.44654 1237 ft 124 kts 65°
2026-04-14 01:20 -23.03828 -43.43801 1222 ft 122 kts 65°
2026-04-14 01:20 -23.03518 -43.42991 1218 ft 110 kts 68°
2026-04-14 01:20 -23.03261 -43.42263 1225 ft 96 kts 69°
2026-04-14 01:20 -23.03040 -43.41619 1231 ft 87 kts 70°
2026-04-14 01:21 -23.02834 -43.41022 1234 ft 83 kts 70°
2026-04-14 01:21 -23.02631 -43.40445 1179 ft 84 kts 68°
2026-04-14 01:21 -23.02417 -43.39826 1027 ft 87 kts 70°
2026-04-14 01:21 -23.02134 -43.39235 866 ft 92 kts 59°
2026-04-14 01:22 -23.01769 -43.38656 738 ft 93 kts 56°
2026-04-14 01:22 -23.01382 -43.38118 756 ft 90 kts 53°
2026-04-14 01:22 -23.00999 -43.37587 744 ft 88 kts 55°
2026-04-14 01:22 -23.00665 -43.37072 746 ft 80 kts 56°
2026-04-14 01:23 -23.00295 -43.36660 743 ft 70 kts 36°
2026-04-14 01:23 -22.99824 -43.36548 729 ft 69 kts
2026-04-14 01:23 -22.99333 -43.36546 722 ft 71 kts
2026-04-14 01:23 -22.98865 -43.36556 710 ft 62 kts
2026-04-14 01:24 -22.98461 -43.36567 738 ft 53 kts
2026-04-14 01:24 -22.98058 -43.36580 768 ft 64 kts
2026-04-14 01:24 -22.97591 -43.36611 721 ft 70 kts 352°
2026-04-14 01:24 -22.97306 -43.36990 589 ft 70 kts 279°
2026-04-14 01:25 -22.97564 -43.37279 516 ft 54 kts 179°
2026-04-14 01:25 -22.97952 -43.37230 355 ft 52 kts 179°
2026-04-14 01:25 -22.98250 -43.37202 203 ft 36 kts 193°
2026-04-14 01:25 -22.98493 -43.37211 82 ft 34 kts 196°
2026-04-14 01:26 -22.98631 -43.37212 21 ft 7 kts 196°
2026-04-14 01:26 -22.98667 -43.37216 25 ft 6 kts 192°
2026-04-14 01:26 -22.98716 -43.37216 28 ft 7 kts 171°
2026-04-14 01:26 -22.98764 -43.37196 21 ft 9 kts 162°
2026-04-14 01:27 -22.98811 -43.37171 20 ft 7 kts 147°
2026-04-14 01:27 -22.98849 -43.37148 16 ft 5 kts 178°
2026-04-14 01:27 -22.98893 -43.37143 19 ft 8 kts 190°
2026-04-14 01:27 -22.98952 -43.37147 16 ft 5 kts 189°
2026-04-14 01:28 -22.98976 -43.37150 16 ft 2 kts 127°
2026-04-14 01:28 -22.98985 -43.37130 14 ft 3 kts 103°
2026-04-14 01:28 -22.98985 -43.37120 10 ft 0 kts 107°